KF6RAL-6 Weather Reports


Display with metric or nautical units.
time (UTC)temp
F
wind
direction
speed
MPH
gust
MPH
rain 1hr
in
rain 24hr
in
rain mn
in
humidity
%
barometer
mb
20180922162523 0 0 0.0 3.0 0.00 0.00 0.00 1018.1
20180922161121 0 0 0.0 0.0 0.00 0.00 0.00 1018.2
20180922160421 0 0 0.0 0.0 0.00 0.00 0.00 1018.3
20180922155018 0 50 1.0 3.0 0.00 0.00 0.00 1018.3
20180922154317 0 43 1.0 3.0 0.00 0.00 0.00 1018.3
20180922153616 0 0 0.0 2.0 0.00 0.00 0.00 1018.2
20180922152915 0 0 0.0 0.0 0.00 0.00 0.00 1018.2
20180922151513 0 54 1.0 3.0 0.00 0.00 0.00 1018.3
20180922150812 0 45 1.0 2.0 0.00 0.00 0.00 1018.2
20180922150111 0 0 0.0 3.0 0.00 0.00 0.00 1018.2
20180922145410 0 42 1.0 3.0 0.00 0.00 0.00 1018.2
20180922144709 0 0 0.0 5.0 0.00 0.00 0.00 1018.1
20180922144008 0 0 0.0 5.0 0.00 0.00 0.00 1018.0
20180922143307 0 0 0.0 3.0 0.00 0.00 0.00 1018.0
20180922142606 0 0 0.0 2.0 0.00 0.00 0.00 1018.0
20180922141905 0 0 0.0 0.0 0.00 0.00 0.00 1017.8
20180922141204 0 0 0.0 0.0 0.00 0.00 0.00 1017.8
20180922140502 0 0 0.0 0.0 0.00 0.00 0.00 1017.7
20180922135807 0 0 0.0 1.0 0.00 0.00 0.00 1017.7
20180922135100 0 0 0.0 2.0 0.00 0.00 0.00 1017.6
20180922134359 0 246 1.0 2.0 0.00 0.00 0.00 1017.5
20180922133658 0 0 0.0 3.0 0.00 0.00 0.00 1017.5
20180922132957 0 253 1.0 2.0 0.00 0.00 0.00 1017.4
20180922131555 0 245 2.0 7.0 0.00 0.00 0.00 1017.3
20180922130856 0 224 2.0 6.0 0.00 0.00 0.00 1017.2
20180922130153 0 0 0.0 5.0 0.00 0.00 0.00 1017.2
20180922125452 0 0 0.0 5.0 0.00 0.00 0.00 1017.2
20180922124751 0 0 0.0 5.0 0.00 0.00 0.00 1017.2
20180922124050 0 224 3.0 6.0 0.00 0.00 0.00 1017.2
20180922123349 0 225 3.0 7.0 0.00 0.00 0.00 1017.2
20180922122648 0 0 0.0 7.0 0.00 0.00 0.00 1017.1
20180922121948 0 225 2.0 7.0 0.00 0.00 0.00 1017.1
20180922121246 0 0 0.0 0.0 0.00 0.00 0.00 1017.1
20180922120545 0 0 0.0 0.0 0.00 0.00 0.00 1017.2
20180922115846 0 0 0.0 0.0 0.00 0.00 0.00 1017.1
20180922115145 0 0 0.0 0.0 0.00 0.00 0.00 1017.1
20180922114442 0 0 0.0 3.0 0.00 0.00 0.00 1017.1
20180922113741 0 0 0.0 5.0 0.00 0.00 0.00 1017.1
20180922113040 0 0 0.0 0.0 0.00 0.00 0.00 1017.1
20180922112340 0 0 0.0 2.0 0.00 0.00 0.00 1017.0
20180922110937 0 0 0.0 7.0 0.00 0.00 0.00 1017.0
20180922110236 0 0 0.0 0.0 0.00 0.00 0.00 1017.0
20180922105537 0 0 0.0 0.0 0.00 0.00 0.00 1017.1
20180922104834 0 0 0.0 0.0 0.00 0.00 0.00 1017.2
20180922104133 0 0 0.0 0.0 0.00 0.00 0.00 1017.2
20180922103432 0 0 0.0 5.0 0.00 0.00 0.00 1017.3
20180922102731 0 255 2.0 6.0 0.00 0.00 0.00 1017.2
20180922102058 0 255 3.0 6.0 0.00 0.00 0.00 1017.2
20180922101329 0 251 2.0 4.0 0.00 0.00 0.00 1017.2
20180922100628 0 249 2.0 7.0 0.00 0.00 0.00 1017.2
20180922095928 0 226 4.0 6.0 0.00 0.00 0.00 1017.2
20180922095226 0 226 2.0 8.0 0.00 0.00 0.00 1017.3
20180922094527 0 218 4.0 9.0 0.00 0.00 0.00 1017.2
20180922093824 0 0 0.0 1.0 0.00 0.00 0.00 1017.2
20180922093125 0 0 0.0 3.0 0.00 0.00 0.00 1017.2
20180922091020 0 196 3.0 7.0 0.00 0.00 0.00 1017.3
20180922090319 0 0 0.0 2.0 0.00 0.00 0.00 1017.4
20180922085618 0 0 0.0 0.0 0.00 0.00 0.00 1017.4
20180922084917 0 0 0.0 0.0 0.00 0.00 0.00 1017.4
20180922084216 0 0 0.0 0.0 0.00 0.00 0.00 1017.3
20180922083515 0 0 0.0 0.0 0.00 0.00 0.00 1017.4
20180922082814 0 0 0.0 0.0 0.00 0.00 0.00 1017.3
20180922082113 0 0 0.0 0.0 0.00 0.00 0.00 1017.3
20180922081412 0 0 0.0 0.0 0.00 0.00 0.00 1017.4
20180922080711 0 0 0.0 0.0 0.00 0.00 0.00 1017.5
20180922080011 0 0 0.0 0.0 0.00 0.00 0.00 1017.5
20180922075309 0 0 0.0 0.0 0.00 0.00 0.00 1017.6
20180922074608 0 0 0.0 0.0 0.00 0.00 0.00 1017.5
20180922073907 0 0 0.0 6.0 0.00 0.00 0.00 1017.5
20180922073206 0 210 3.0 9.0 0.00 0.00 0.00 1017.5
20180922072505 0 222 3.0 9.0 0.00 0.00 0.00 1017.6
20180922071804 0 0 0.0 0.0 0.00 0.00 0.00 1017.4
20180922071103 0 0 0.0 0.0 0.00 0.00 0.00 1017.4
20180922070402 0 0 0.0 0.0 0.00 0.00 0.00 1017.4
20180922065701 0 0 0.0 0.0 0.00 0.00 0.00 1017.4
20180922065000 0 0 0.0 0.0 0.00 0.00 0.00 1017.5
20180922064259 0 0 0.0 0.0 0.00 0.00 0.00 1017.5
20180922063559 0 0 0.0 0.0 0.00 0.00 0.00 1017.6
20180922062857 0 0 0.0 0.0 0.00 0.00 0.00 1017.7
20180922062157 0 0 0.0 0.0 0.00 0.00 0.00 1017.7
20180922061456 0 0 0.0 0.0 0.00 0.00 0.00 1017.7
20180922060754 0 0 0.0 0.0 0.00 0.00 0.00 1017.7
20180922060053 0 0 0.0 0.0 0.00 0.00 0.00 1017.7
20180922055352 0 0 0.0 0.0 0.00 0.00 0.00 1017.8
20180922054651 0 0 0.0 4.0 0.00 0.00 0.00 1017.8
20180922053950 0 0 0.0 4.0 0.00 0.00 0.00 1017.8
20180922053249 0 145 1.0 4.0 0.00 0.00 0.00 1017.9
20180922052548 0 0 0.0 0.0 0.00 0.00 0.00 1017.9
20180922051847 0 0 0.0 0.0 0.00 0.00 0.00 1017.9
20180922051146 0 0 0.0 0.0 0.00 0.00 0.00 1017.9
20180922050445 0 0 0.0 0.0 0.00 0.00 0.00 1018.0
20180922045744 0 0 0.0 0.0 0.00 0.00 0.00 1018.0
20180922045043 0 0 0.0 0.0 0.00 0.00 0.00 1018.0
20180922044342 0 0 0.0 0.0 0.00 0.00 0.00 1017.9
20180922043641 0 0 0.0 0.0 0.00 0.00 0.00 1017.9
20180922042940 0 0 0.0 0.0 0.00 0.00 0.00 1018.0
20180922042239 0 0 0.0 0.0 0.00 0.00 0.00 1017.9
20180922041538 0 0 0.0 0.0 0.00 0.00 0.00 1018.0
20180922040136 0 0 0.0 0.0 0.00 0.00 0.00 1018.0
20180922035435 0 0 0.0 0.0 0.00 0.00 0.00 1018.1
20180922034733 0 0 0.0 0.0 0.00 0.00 0.00 1018.1
20180922034033 0 0 0.0 0.0 0.00 0.00 0.00 1018.1
20180922033333 0 0 0.0 0.0 0.00 0.00 0.00 1018.1
20180922032630 0 0 0.0 0.0 0.00 0.00 0.00 1018.1
20180922031931 0 0 0.0 0.0 0.00 0.00 0.00 1018.1
20180922031229 0 0 0.0 0.0 0.00 0.00 0.00 1018.0
20180922030527 0 0 0.0 0.0 0.00 0.00 0.00 1018.0
20180922025826 0 0 0.0 0.0 0.00 0.00 0.00 1018.0
20180922025125 0 0 0.0 0.0 0.00 0.00 0.00 1017.9
20180922024424 0 0 0.0 0.0 0.00 0.00 0.00 1017.9
20180922023723 0 0 0.0 0.0 0.00 0.00 0.00 1017.8
20180922023022 0 0 0.0 0.0 0.00 0.00 0.00 1017.7
20180922022321 0 0 0.0 0.0 0.00 0.00 0.00 1017.6
20180922021620 0 0 0.0 0.0 0.00 0.00 0.00 1017.5
20180922020921 0 0 0.0 0.0 0.00 0.00 0.00 1017.6
20180922020218 0 0 0.0 4.0 0.00 0.00 0.00 1017.7
20180922015517 0 0 0.0 0.0 0.00 0.00 0.00 1017.7
20180922014816 0 0 0.0 0.0 0.00 0.00 0.00 1017.7
20180922014115 0 0 0.0 0.0 0.00 0.00 0.00 1017.7
20180922013416 0 0 0.0 0.0 0.00 0.00 0.00 1017.6
20180922012014 0 0 0.0 1.0 0.00 0.00 0.00 1017.5
20180922011311 0 0 0.0 6.0 0.00 0.00 0.00 1017.5
20180922010610 0 48 3.0 6.0 0.00 0.00 0.00 1017.5
20180922005910 0 48 4.0 6.0 0.00 0.00 0.00 1017.6
20180922005208 0 48 4.0 6.0 0.00 0.00 0.00 1017.5
20180922004507 0 48 3.0 4.0 0.00 0.00 0.00 1017.5
20180922003806 0 0 0.0 0.0 0.00 0.00 0.00 1017.5
20180922003108 0 0 0.0 0.0 0.00 0.00 0.00 1017.6
20180922002404 0 0 0.0 0.0 0.00 0.00 0.00 1017.6
20180922001703 0 0 0.0 3.0 0.00 0.00 0.00 1017.7
20180922001004 0 0 0.0 4.0 0.00 0.00 0.00 1017.8
20180922000301 0 321 2.0 4.0 0.00 0.00 0.00 1017.7
20180921235600 0 321 1.0 4.0 0.00 0.00 0.00 1017.8
20180921234859 0 0 0.0 0.0 0.00 0.00 0.00 1017.8
20180921234159 0 0 0.0 0.0 0.00 0.00 0.00 1017.9
20180921233457 0 0 0.0 1.0 0.00 0.00 0.00 1017.9
20180921232756 0 0 0.0 4.0 0.00 0.00 0.00 1018.0
20180921232055 0 321 1.0 5.0 0.00 0.00 0.00 1018.1
20180921231355 0 321 2.0 6.0 0.00 0.00 0.00 1018.0
20180921230653 0 317 3.0 7.0 0.00 0.00 0.00 1018.1
20180921225952 0 318 3.0 7.0 0.00 0.00 0.00 1018.1
20180921225251 0 318 3.0 6.0 0.00 0.00 0.00 1018.2
20180921224550 0 331 2.0 5.0 0.00 0.00 0.00 1018.2
20180921223849 0 324 1.0 7.0 0.00 0.00 0.00 1018.2
20180921223148 0 321 3.0 8.0 0.00 0.00 0.00 1018.3
20180921222447 0 11 4.0 10.0 0.00 0.00 0.00 1018.4
20180921221746 0 356 4.0 10.0 0.00 0.00 0.00 1018.4
20180921221047 0 341 4.0 11.0 0.00 0.00 0.00 1018.5
20180921220344 0 356 6.0 11.0 0.00 0.00 0.00 1018.5
20180921215643 0 347 6.0 10.0 0.00 0.00 0.00 1018.6
20180921214943 0 354 6.0 10.0 0.00 0.00 0.00 1018.7
20180921214241 0 311 2.0 7.0 0.00 0.00 0.00 1018.7
20180921213540 0 305 4.0 7.0 0.00 0.00 0.00 1018.8
20180921212840 0 302 4.0 7.0 0.00 0.00 0.00 1018.8
20180921212138 0 311 2.0 7.0 0.00 0.00 0.00 1018.9
20180921211438 0 318 3.0 7.0 0.00 0.00 0.00 1018.9
20180921210736 0 329 4.0 8.0 0.00 0.00 0.00 1019.0
20180921210035 0 7 5.0 7.0 0.00 0.00 0.00 1018.9
20180921205334 0 345 4.0 6.0 0.00 0.00 0.00 1019.2
20180921204633 0 0 0.0 5.0 0.00 0.00 0.00 1019.3
20180921203932 0 336 1.0 5.0 0.00 0.00 0.00 1019.4
20180921203231 0 337 1.0 5.0 0.00 0.00 0.00 1019.5
20180921202530 0 0 0.0 0.0 0.00 0.00 0.00 1019.6
20180921201829 0 0 0.0 4.0 0.00 0.00 0.00 1019.8
20180921201128 0 319 1.0 4.0 0.00 0.00 0.00 1020.0
20180921200429 0 0 0.0 0.0 0.00 0.00 0.00 1020.0
20180921195726 0 0 0.0 0.0 0.00 0.00 0.00 1020.0
20180921195025 0 0 0.0 2.0 0.00 0.00 0.00 1020.1
20180921194324 0 0 0.0 4.0 0.00 0.00 0.00 1020.2
20180921193623 0 0 0.0 4.0 0.00 0.00 0.00 1020.3
20180921192922 0 318 1.0 4.0 0.00 0.00 0.00 1020.4
20180921192221 0 318 2.0 4.0 0.00 0.00 0.00 1020.5
20180921190820 0 0 0.0 0.0 0.00 0.00 0.00 1020.6
20180921190120 0 0 0.0 0.0 0.00 0.00 0.00 1020.7
20180921185417 0 0 0.0 0.0 0.00 0.00 0.00 1020.7
20180921184717 0 0 0.0 4.0 0.00 0.00 0.00 1020.8
20180921184015 0 0 0.0 4.0 0.00 0.00 0.00 1020.8
20180921183314 0 318 1.0 4.0 0.00 0.00 0.00 1020.9
20180921182613 0 318 2.0 5.0 0.00 0.00 0.00 1021.0
20180921181912 0 318 2.0 5.0 0.00 0.00 0.00 1021.1
20180921181211 0 0 0.0 4.0 0.00 0.00 0.00 1021.1
20180921180510 0 0 0.0 0.0 0.00 0.00 0.00 1021.2
20180921175809 0 0 0.0 5.0 0.00 0.00 0.00 1021.3
20180921175108 0 0 0.0 5.0 0.00 0.00 0.00 1021.4
20180921174407 0 0 0.0 0.0 0.00 0.00 0.00 1021.5
20180921173706 0 0 0.0 0.0 0.00 0.00 0.00 1021.6
20180921173005 0 0 0.0 0.0 0.00 0.00 0.00 1021.6
20180921172304 0 0 0.0 0.0 0.00 0.00 0.00 1021.5
20180921171603 0 0 0.0 0.0 0.00 0.00 0.00 1021.5
20180921170902 0 0 0.0 0.0 0.00 0.00 0.00 1021.5
20180921170202 0 0 0.0 0.0 0.00 0.00 0.00 1021.6
20180921165459 0 0 0.0 0.0 0.00 0.00 0.00 1021.6
20180921164758 0 0 0.0 0.0 0.00 0.00 0.00 1021.6
20180921164057 0 0 0.0 0.0 0.00 0.00 0.00 1021.6
20180921163356 0 0 0.0 0.0 0.00 0.00 0.00 1021.6